[[{"header":{"parameterUnit":"m.s-1","parameterCategory":1,"la1":30.2991,"la2":30.254,"lo1":-89.0895,"lo2":-89.0444,"dy":0.0017,"dx":0.0017,"nx":28,"ny":28,"refTime":"2024-03-01T03:00:00:Z","depth":0,"parameterNumber":2,"parameterNumberName":"U-component_of_WINDS"},"data":[0,0,0,0,0,0,0,0,0,0,0,0,0,0,0,0,0,0,0,0,0,0,0,0,0,0,0,0,0,0,0,0,0,0,0,0,0,0,0,0,0,0,0,0,0,0,0,0,0,0,0,0,0,0,0,0,0,0,-8.4717,-8.4718,0,-8.4826,-8.4827,-8.4829,-8.4697,-8.4692,-8.4687,-8.4682,-8.4796,-8.4804,-8.4811,0,0,0,0,0,0,0,0,0,0,0,0,0,-8.4398,-8.4404,-8.4717,-8.4718,-8.472,-8.4826,-8.4827,-8.4829,-8.4698,-8.4692,-8.4686,-8.468,-8.4794,-8.4803,-8.4812,0,0,0,0,0,0,0,0,0,0,0,0,0,-8.4525,-8.4406,-8.4717,-8.4667,-8.4664,-8.4826,-8.4827,-8.4829,-8.4699,-8.4691,-8.4684,-8.4677,-8.4791,-8.4802,-8.4813,-8.503,0,0,-8.4848,-8.4853,0,0,0,0,0,0,0,0,-8.4518,-8.4537,-8.4673,-8.4671,-8.4667,-8.474,-8.4756,-8.4897,-8.4701,-8.4686,-8.4682,-8.4674,-8.4784,-8.4795,-8.4832,-8.5035,-8.504,-8.4849,-8.4856,-8.4861,-8.4864,0,0,0,0,0,0,0,-8.4509,-8.4531,-8.476,-8.4675,-8.4672,-8.464,-8.465,-8.4782,-8.4774,-8.4686,-8.4677,-8.4692,-8.4781,-8.4821,-8.4833,-8.5042,-8.4848,-8.4859,-8.4866,-8.487,-8.5427,-8.5435,0,0,0,0,0,0,-8.4506,-8.4525,-8.4757,-8.4763,-8.4573,-8.4652,-8.4663,-8.4724,-8.4773,-8.4773,-8.4698,-8.4685,-8.4805,-8.482,-8.4837,-8.5091,-8.486,-8.4871,-8.4878,-8.5419,-8.5429,-8.5437,0,0,0,0,0,0,-8.4499,-8.4528,-8.4752,-8.4642,-8.4668,-8.4665,-8.4735,-8.473,-8.477,-8.4781,-8.4779,-8.474,-8.48,-8.4821,-8.4982,-8.5093,-8.4876,-8.4887,-8.541,-8.5422,-8.5433,-8.5603,0,0,0,0,0,0,-8.4491,-8.4526,-8.4608,-8.4644,-8.4674,-8.4895,-8.4742,-8.4738,-8.479,-8.4774,-8.482,-8.4821,-8.4796,-8.4966,-8.4994,-8.5105,-8.4895,-8.54,-8.5415,-8.5429,-8.5587,-8.5619,-8.5647,0,0,0,0,0,-8.448,-8.4652,-8.4612,-8.4641,-8.4776,-8.4902,-8.4919,-8.4886,-8.48,-8.4881,-8.4889,-8.482,-8.5078,-8.4984,-8.5014,-8.513,-8.5392,-8.5411,-8.5428,-8.5574,-8.5613,-8.5646,0,0,0,0,0,0,-8.4628,-8.4656,-8.4612,-8.4801,-8.485,-8.4879,-8.4981,-8.4928,-8.5003,-8.4985,-8.4942,-8.4954,-8.5125,-8.5145,-8.5039,-8.5342,-8.5221,-8.5246,-8.5322,-8.5359,-8.5388,-8.5377,-8.4905,0,0,0,0,0,-8.4684,-8.4783,-8.4802,-8.4967,-8.4994,-8.4985,-8.5038,-8.5008,-8.5057,-8.5078,-8.5096,-8.5148,-8.524,-8.5301,-8.5387,-8.5592,-8.5599,-8.5687,-8.5717,-8.5741,-8.5761,-8.5869,-8.5907,-8.5496,-8.5496,-8.5496,0,0,-8.4797,-8.4825,-8.489,-8.4998,-8.5032,-8.5136,-8.5002,-8.5118,-8.5194,-8.5095,-8.5247,-8.5264,-8.5318,-8.5501,-8.5583,-8.5523,-8.5877,-8.5764,-8.5783,-8.579,-8.5891,-8.593,-8.5964,-8.5509,-8.5506,-8.5504,0,0,-8.5057,-8.5089,-8.5228,-8.5266,-8.532,-8.5313,-8.5347,-8.5385,-8.5391,-8.5544,-8.5471,-8.5563,-8.5724,-8.5764,-8.5806,-8.6085,-8.6023,-8.6115,-8.6267,-8.6372,-8.6405,-8.6433,-8.6528,-8.6564,-8.6136,-8.6136,-8.6137,0,-8.5191,-8.5344,-8.5307,-8.5428,-8.5477,-8.5393,-8.5533,-8.5572,-8.5652,-8.5688,-8.562,-8.5819,-8.585,-8.6041,-8.6108,-8.6147,-8.6183,-8.6106,-8.6403,-8.6431,-8.6457,-8.6547,-8.6584,-8.6147,-8.6146,-8.6144,-8.6143,0,-8.5505,-8.5613,-8.5719,-8.5797,-8.5859,-8.5989,-8.5973,-8.6041,-8.6007,-8.6008,-8.6164,-8.6199,-8.6289,-8.6333,-8.6303,-8.652,-8.648,-8.641,-8.6286,-8.6507,-8.6591,-8.6626,-8.6162,-8.6158,-8.6155,-8.6152,0,0,-8.5855,-8.5913,-8.5952,-8.5986,-8.6041,-8.6123,-8.6252,-8.6339,-8.6396,-8.6457,-8.656,-8.67,-8.6634,-8.6682,-8.6656,-8.6749,-8.6963,-8.6665,-8.6666,-8.6716,-8.7201,-8.7251,-8.7292,-8.6925,-8.6932,-8.6937,-8.7195,0,-8.6112,-8.633,-8.6302,-8.6512,-8.6609,-8.6533,-8.6644,-8.669,-8.6696,-8.678,-8.6786,-8.6884,-8.6792,-8.682,-8.6909,-8.6918,-8.7059,-8.69,-8.702,-8.7024,-8.7002,-8.7336,-8.7389,-8.763,-8.7228,-8.7234,-8.7238,0,-8.6438,-8.6508,-8.6727,-8.6766,-8.6806,-8.6906,-8.6984,-8.7067,-8.7118,-8.7115,-8.717,-8.7128,-8.7256,-8.7135,-8.731,-8.7202,-8.7251,-8.7264,-8.7272,-8.7277,-8.714,-8.7346,-8.7707,-8.7741,-8.7291,-8.7286,-8.7283,0,-8.6666,-8.6816,-8.6965,-8.6997,-8.7048,-8.712,-8.7145,-8.7189,-8.7244,-8.7314,-8.7348,-8.7433,-8.7478,-8.7546,-8.7527,-8.7441,-8.7706,-8.7584,-8.7705,-8.7706,-8.7759,-8.7755,-8.8128,-8.7801,-8.78,-8.7799,-8.7799,0,-8.6951,-8.7087,-8.7068,-8.7159,-8.731,-8.7279,-8.7428,-8.7444,-8.7485,-8.7578,-8.752,-8.7609,-8.7582,-8.7671,-8.7659,-8.7804,-8.7826,-8.7827,-8.782,-8.7828,-8.7828,-8.7855,-8.7836,-8.7809,-8.7807,-8.7805,-8.7803,0,-8.7228,-8.7221,-8.7378,-8.7415,-8.7427,-8.7536,-8.7566,-8.7653,-8.7655,-8.7774,-8.7801,-8.7804,-8.7905,-8.7895,-8.801,-8.8001,-8.818,-8.8157,-8.8161,-8.8154,-8.8274,-8.8261,-8.8673,-8.8724,-8.8369,-8.8373,-8.8375,0,-8.7407,-8.7509,-8.7557,-8.7615,-8.7644,-8.7739,-8.7795,-8.777,-8.783,-8.7898,-8.7976,-8.8072,-8.8146,-8.8312,-8.8324,-8.8411,-8.8386,-8.8526,-8.8399,-8.8403,-8.8383,-8.8374,-8.8383,-8.8548,-8.8552,-8.8555,-8.8558,0,-8.7724,-8.7716,-8.7798,-8.788,-8.7947,-8.8011,-8.8068,-8.812,-8.81,-8.8172,-8.8274,-8.8332,-8.8448,-8.8543,-8.8626,-8.8652,-8.8602,-8.8599,-8.8631,-8.8636,-8.8633,-8.8632,-8.8223,-8.8588,-8.8585,-8.8583,-8.8581,-8.858,-8.7954,-8.8041,-8.8087,-8.818,-8.8222,-8.8277,-8.8359,-8.8372,-8.8457,-8.8548,-8.853,-8.8645,-8.8695,-8.8801,-8.8836,-8.8925,-8.8875,-8.8922,-8.8933,-8.8943,-8.8955,-8.8624,-8.8941,-8.894,-8.894,-8.8939,-8.8938,0,-8.8263,-8.8291,-8.8377,-8.8459,-8.8533,-8.8481,-8.8543,-8.8607,-8.8708,-8.876,-8.8835,-8.8952,-8.9045,-8.9067,-8.9156,-8.9223,-8.9202,-8.9247,-8.9239,-8.9245,-8.8997,-8.8958,-8.9262,-8.9262,-8.9262,-8.9262,-8.9262,-8.9262,-8.8432,-8.8576,-8.8574,-8.8738,-8.8764,-8.8875,-8.8914,-8.8965,-8.9005,-8.9139,-8.9215,-8.9229,-8.9269,-8.9361,-8.9444,-8.9448,-8.9481,-8.9534,-8.9529,-8.9295,-8.9263,-8.9232,-8.9194,-8.9543,-8.9543,-8.9768,-8.977,-8.9771]},{"header":{"parameterUnit":"m.s-1","parameterCategory":1,"la1":30.2991,"la2":30.254,"lo1":-89.0895,"lo2":-89.0444,"dy":0.0017,"dx":0.0017,"nx":28,"ny":28,"refTime":"2024-03-01T03:00:00:Z","depth":0,"parameterNumber":3,"parameterNumberName":"V-component_of_WINDS"},"data":[0,0,0,0,0,0,0,0,0,0,0,0,0,0,0,0,0,0,0,0,0,0,0,0,0,0,0,0,0,0,0,0,0,0,0,0,0,0,0,0,0,0,0,0,0,0,0,0,0,0,0,0,0,0,0,0,0,0,1.7593,1.7595,0,1.773,1.7732,1.7733,1.7725,1.7723,1.7721,1.7719,1.7864,1.787,1.7875,0,0,0,0,0,0,0,0,0,0,0,0,0,1.7331,1.7336,1.7593,1.7595,1.7597,1.773,1.7732,1.7734,1.7725,1.7723,1.7721,1.7718,1.7862,1.7869,1.7876,0,0,0,0,0,0,0,0,0,0,0,0,0,1.7454,1.7338,1.7593,1.7608,1.7611,1.7729,1.7732,1.7734,1.7726,1.7723,1.772,1.7717,1.786,1.7868,1.7877,1.799,0,0,1.7903,1.7907,0,0,0,0,0,0,0,0,1.7447,1.7464,1.7604,1.7608,1.7611,1.7707,1.7693,1.782,1.7727,1.7683,1.7719,1.7716,1.7815,1.7827,1.7859,1.7997,1.8003,1.7904,1.7909,1.7913,1.7915,0,0,0,0,0,0,0,1.7439,1.7458,1.7647,1.7607,1.7611,1.7611,1.7625,1.7717,1.7764,1.7686,1.7686,1.7702,1.7816,1.7851,1.7863,1.8005,1.7904,1.7911,1.7916,1.792,1.8246,1.825,0,0,0,0,0,0,1.7426,1.7451,1.7643,1.7652,1.752,1.7618,1.7634,1.768,1.7763,1.7773,1.7704,1.7701,1.7838,1.7853,1.7868,1.8008,1.7913,1.7921,1.7926,1.8243,1.8247,1.8251,0,0,0,0,0,0,1.7421,1.7443,1.7638,1.7551,1.7576,1.7626,1.7677,1.7684,1.7719,1.7777,1.7786,1.7731,1.7836,1.7856,1.796,1.8013,1.7924,1.7932,1.8239,1.8244,1.8249,1.8288,0,0,0,0,0,0,1.7413,1.7441,1.7483,1.7552,1.7581,1.7726,1.768,1.7689,1.7733,1.773,1.7804,1.7813,1.7835,1.7947,1.7969,1.8023,1.7939,1.8234,1.8241,1.8247,1.8283,1.8294,1.8304,0,0,0,0,0,1.7404,1.7489,1.7485,1.7508,1.7634,1.7729,1.7745,1.7767,1.7737,1.7781,1.7819,1.7811,1.8003,1.7958,1.7982,1.804,1.8231,1.8239,1.8247,1.8278,1.8292,1.8304,0,0,0,0,0,0,1.7426,1.7498,1.7495,1.7605,1.7661,1.7727,1.7783,1.7781,1.7848,1.7842,1.7868,1.7885,1.7991,1.8026,1.7974,1.8156,1.8114,1.8127,1.8129,1.8143,1.8154,1.8144,1.7946,0,0,0,0,0,1.7443,1.7513,1.7573,1.7664,1.7692,1.7733,1.7775,1.7787,1.7847,1.7871,1.7916,1.7976,1.805,1.8098,1.8169,1.8287,1.8305,1.8339,1.835,1.8359,1.8371,1.8439,1.8456,1.8277,1.8277,1.8277,0,0,1.748,1.7529,1.7571,1.767,1.7715,1.7788,1.7753,1.7832,1.7888,1.7883,1.7985,1.8021,1.8089,1.8202,1.8254,1.8234,1.8424,1.8369,1.8375,1.8383,1.8449,1.8466,1.8481,1.8282,1.8281,1.828,0,0,1.7586,1.7628,1.771,1.7756,1.7824,1.7851,1.7871,1.7938,1.7962,1.8064,1.8063,1.8131,1.8257,1.8307,1.8349,1.8476,1.8473,1.8499,1.8556,1.8623,1.8637,1.865,1.8698,1.8715,1.851,1.851,1.851,0,1.7624,1.7733,1.7753,1.7833,1.7878,1.7877,1.7962,1.8006,1.8094,1.8127,1.8103,1.8264,1.831,1.8435,1.8467,1.85,1.8526,1.8491,1.8633,1.8646,1.8658,1.8705,1.8722,1.8513,1.8513,1.8512,1.8512,0,1.7778,1.7854,1.7913,1.7998,1.8049,1.8131,1.8166,1.8216,1.8224,1.8254,1.8361,1.8416,1.85,1.853,1.8539,1.8659,1.8645,1.8627,1.8585,1.8678,1.8722,1.874,1.8517,1.8516,1.8515,1.8514,0,0,1.7902,1.7997,1.8019,1.8058,1.8134,1.8195,1.8278,1.8359,1.8403,1.8465,1.8537,1.8645,1.863,1.8678,1.8693,1.8751,1.8852,1.8726,1.8728,1.875,1.8991,1.9005,1.9025,1.885,1.8853,1.8856,1.8986,0,1.8017,1.8163,1.8184,1.8314,1.8387,1.8388,1.8461,1.8517,1.8548,1.8616,1.8651,1.8728,1.8701,1.873,1.8787,1.8827,1.8901,1.8818,1.8921,1.8924,1.8905,1.9048,1.9063,1.9183,1.9003,1.9006,1.9008,0,1.8171,1.8236,1.8373,1.8442,1.8473,1.8538,1.8616,1.8679,1.8744,1.8763,1.8817,1.8826,1.8916,1.8869,1.8995,1.8938,1.8982,1.9008,1.9013,1.9025,1.8973,1.9066,1.9221,1.924,1.9035,1.9033,1.9031,0,1.825,1.8372,1.8471,1.8505,1.8586,1.8633,1.8669,1.8731,1.8779,1.8848,1.888,1.8958,1.9002,1.9063,1.9094,1.9057,1.9219,1.9174,1.924,1.9239,1.9275,1.9273,1.9442,1.9299,1.9299,1.9299,1.9298,0,1.8378,1.8463,1.8508,1.8569,1.8665,1.869,1.8785,1.882,1.8876,1.8946,1.8951,1.9017,1.9052,1.9125,1.9149,1.9252,1.9271,1.929,1.9296,1.9291,1.9289,1.9321,1.9315,1.9304,1.9303,1.9302,1.9301,0,1.8483,1.8517,1.8625,1.8693,1.8713,1.8781,1.8841,1.8902,1.8933,1.9021,1.9044,1.9093,1.9179,1.9215,1.932,1.9336,1.9455,1.9453,1.9433,1.9435,1.9499,1.9494,1.9697,1.9726,1.9562,1.9563,1.9565,0,1.8563,1.8629,1.8705,1.8751,1.8789,1.8864,1.8913,1.8941,1.8993,1.9073,1.9125,1.921,1.928,1.9417,1.9464,1.9545,1.9547,1.9613,1.956,1.9553,1.9552,1.9548,1.9557,1.9623,1.9625,1.9626,1.9627,0,1.8704,1.8717,1.8787,1.8864,1.8923,1.8985,1.9046,1.9084,1.9122,1.918,1.9267,1.9321,1.9429,1.9515,1.9599,1.964,1.9642,1.9643,1.9663,1.966,1.9647,1.9658,1.9462,1.9639,1.9638,1.9637,1.9636,1.9636,1.8801,1.886,1.8923,1.9002,1.905,1.9108,1.9169,1.9208,1.928,1.9369,1.9381,1.9475,1.9542,1.9655,1.9699,1.9775,1.9759,1.9787,1.9794,1.9802,1.9807,1.9632,1.979,1.979,1.979,1.9789,1.9789,0,1.8944,1.8985,1.9057,1.9141,1.9204,1.9198,1.9266,1.932,1.9402,1.9463,1.9531,1.9633,1.9717,1.9771,1.9856,1.9906,1.991,1.9928,1.9926,1.9936,1.9815,1.9791,1.9924,1.9924,1.9924,1.9924,1.9924,1.9924,1.9026,1.9126,1.9148,1.9274,1.9315,1.9406,1.9445,1.95,1.9548,1.9661,1.973,1.9764,1.9824,1.9914,1.9992,2.0005,2.0038,2.0058,2.0072,1.9958,1.9944,1.9931,1.9908,2.0064,2.0064,2.0186,2.0188,2.0188]}]]